CDT,Max TemperatureF,Mean TemperatureF,Min TemperatureF,Max Dew PointF,MeanDew PointF,Min DewpointF,Max Humidity, Mean Humidity, Min Humidity, Max Sea Level PressureIn, Mean Sea Level PressureIn, Min Sea Level PressureIn, Max VisibilityMiles, Mean VisibilityMiles, Min VisibilityMiles, Max Wind SpeedMPH, Mean Wind SpeedMPH, Max Gust SpeedMPH,PrecipitationIn, CloudCover, Events, WindDirDegrees
2013-9-1,84,70,56,64,55,48,87,59,31,30.06,29.99,29.87,10,10,10,17,7,22,0.00,0,,344
2013-9-2,84,67,50,61,56,50,96,71,45,30.13,30.06,30.01,10,10,10,13,4,18,0.00,0,Rain,119
2013-9-3,89,73,56,62,58,54,100,66,32,30.05,30.01,29.96,10,10,7,21,9,26,0.00,0,,161
2013-9-4,89,78,66,66,61,57,87,62,36,30.15,30.06,30.00,10,10,2,21,10,26,0.11,3,Rain-Thunderstorm,137
2013-9-5,89,77,65,67,62,58,81,60,38,30.12,30.07,30.03,10,10,10,18,10,25,T,1,,148
2013-9-6,98,81,64,67,62,58,87,57,26,30.04,29.93,29.83,10,10,10,21,8,26,0.00,0,,154
2013-9-7,92,78,63,70,65,54,100,74,47,29.96,29.90,29.84,10,10,5,15,4,18,T,0,Rain,70
2013-9-8,94,81,67,70,68,62,100,68,36,29.97,29.89,29.74,10,4,0,14,7,22,0.00,3,Fog,112
2013-9-9,97,81,65,65,57,47,73,47,20,29.85,29.75,29.70,10,10,10,22,8,28,0.00,1,,204
2013-9-10,86,75,63,63,61,58,87,64,40,30.06,29.96,29.85,10,10,10,8,5,10,0.00,1,,27
2013-9-11,81,70,58,64,60,57,97,73,48,30.16,30.12,30.08,10,10,10,10,2,12,0.00,2,,102
2013-9-12,81,67,52,62,52,46,100,65,30,30.26,30.21,30.16,10,10,8,14,5,20,0.00,0,,41
2013-9-13,76,60,44,51,47,42,93,64,35,30.24,30.15,30.03,10,10,10,16,7,22,0.00,1,,162
2013-9-14,77,68,59,59,53,49,90,72,53,30.03,29.92,29.83,10,10,10,22,10,29,T,4,,178
2013-9-15,70,64,58,59,55,51,90,74,57,30.28,30.09,29.86,10,10,4,20,10,28,0.09,6,Rain,14
2013-9-16,64,60,56,54,51,48,93,77,60,30.32,30.23,30.15,10,9,2,15,8,18,0.00,8,,128
2013-9-17,73,65,56,66,60,54,100,87,73,30.15,29.95,29.78,10,7,2,18,9,23,0.00,6,,160
2013-9-18,91,77,62,65,64,62,100,72,44,29.77,29.68,29.61,10,9,6,18,9,23,0.00,0,,161
2013-9-19,77,62,47,64,54,44,93,70,46,30.12,29.85,29.62,10,10,4,35,11,44,0.19,4,Rain-Thunderstorm,317
2013-9-20,73,57,41,51,43,39,93,64,34,30.17,30.08,30.00,10,10,10,16,6,22,0.00,0,,316
2013-9-21,84,62,39,52,46,40,96,60,24,30.04,29.90,29.78,10,10,10,21,7,26,0.00,0,,169
2013-9-22,84,67,49,52,49,46,86,60,33,29.78,29.72,29.65,10,10,10,28,14,38,0.00,0,,152
2013-9-23,74,65,55,56,50,47,93,66,38,29.72,29.66,29.62,10,9,4,29,12,40,0.32,4,Rain,125
2013-9-24,75,61,47,56,54,48,96,71,46,29.98,29.89,29.74,10,10,8,22,8,28,T,5,Rain,343
2013-9-25,78,62,45,55,51,44,100,70,39,29.93,29.81,29.63,10,6,0,26,11,35,0.00,1,Fog,150
2013-9-26,87,74,60,57,55,54,78,57,35,29.67,29.62,29.59,10,10,9,23,13,30,0.00,0,,147
2013-9-27,80,65,50,57,53,48,63,55,47,29.79,29.71,29.61,10,7,1,33,14,39,1.63,5,Rain-Thunderstorm,320
2013-9-28,67,56,44,48,44,34,93,61,29,30.06,29.92,29.78,10,8,3,20,11,25,0.46,4,Rain,299
2013-9-29,79,61,43,44,41,39,83,54,25,30.05,29.91,29.78,10,10,10,25,9,33,0.00,0,,192
2013-9-30,84,67,50,51,47,43,77,53,28,29.79,29.71,29.63,10,10,10,18,8,23,0.00,0,,185